Time,TemperatureF,DewpointF,PressureIn,WindDirection,WindDirectionDegrees,WindSpeedMPH,WindSpeedGustMPH,Humidity,HourlyPrecipIn,Conditions,Clouds,dailyrainin,SoftwareType,DateUTC
2013-08-30 00:00:00,80.3,66.6,29.85,SSE,158,3.0,7.0,63,0.00,,---,0.00,VWS V14.01,2013-08-30 05:00:00,
2013-08-30 00:10:00,80.1,66.4,29.85,SSE,158,3.0,10.0,63,0.00,,---,0.00,VWS V14.01,2013-08-30 05:10:00,
2013-08-30 00:20:00,79.8,66.1,29.85,SSE,158,3.0,9.0,63,0.00,,---,0.00,VWS V14.01,2013-08-30 05:20:00,
2013-08-30 00:30:00,79.6,65.9,29.84,SSE,158,3.0,11.0,63,0.00,,---,0.00,VWS V14.01,2013-08-30 05:30:00,
2013-08-30 00:40:00,79.8,65.6,29.84,SSE,158,4.0,10.0,62,0.00,,---,0.00,VWS V14.01,2013-08-30 05:40:00,
2013-08-30 00:50:00,79.8,65.2,29.84,SSE,158,3.0,7.0,61,0.00,,---,0.00,VWS V14.01,2013-08-30 05:50:00,
2013-08-30 01:00:00,79.9,65.3,29.84,SSE,158,3.0,6.0,61,0.00,,---,0.00,VWS V14.01,2013-08-30 06:00:00,
2013-08-30 01:10:00,79.8,65.2,29.84,SSE,158,3.0,6.0,61,0.00,,---,0.00,VWS V14.01,2013-08-30 06:10:00,
2013-08-30 01:20:00,79.2,65.1,29.84,SSW,202,2.0,5.0,62,0.00,,---,0.00,VWS V14.01,2013-08-30 06:20:00,
2013-08-30 01:30:00,78.3,65.1,29.85,South,180,1.0,4.0,64,0.00,,---,0.00,VWS V14.01,2013-08-30 06:30:00,
2013-08-30 01:40:00,77.4,64.7,29.85,South,180,0.0,1.0,65,0.00,,---,0.00,VWS V14.01,2013-08-30 06:40:00,
2013-08-30 01:50:00,76.8,64.6,29.85,South,180,0.0,0.0,66,0.00,,---,0.00,VWS V14.01,2013-08-30 06:50:00,
2013-08-30 02:00:00,76.8,64.6,29.85,South,180,0.0,0.0,66,0.00,,---,0.00,VWS V14.01,2013-08-30 07:00:00,
2013-08-30 02:10:00,76.8,64.6,29.85,South,180,0.0,0.0,66,0.00,,---,0.00,VWS V14.01,2013-08-30 07:10:00,
2013-08-30 02:20:00,76.5,64.3,29.85,South,180,0.0,0.0,66,0.00,,---,0.00,VWS V14.01,2013-08-30 07:20:00,
2013-08-30 02:30:00,76.3,64.6,29.85,South,180,0.0,0.0,67,0.00,,---,0.00,VWS V14.01,2013-08-30 07:30:00,
2013-08-30 02:40:00,76.0,64.3,29.85,South,180,0.0,0.0,67,0.00,,---,0.00,VWS V14.01,2013-08-30 07:40:00,
2013-08-30 02:50:00,76.0,64.3,29.85,South,180,0.0,0.0,67,0.00,,---,0.00,VWS V14.01,2013-08-30 07:50:00,
2013-08-30 03:00:00,75.6,63.9,29.86,South,180,0.0,0.0,67,0.00,,---,0.00,VWS V14.01,2013-08-30 08:00:00,
2013-08-30 03:10:00,75.3,64.0,29.86,South,180,0.0,0.0,68,0.00,,---,0.00,VWS V14.01,2013-08-30 08:10:00,
2013-08-30 03:20:00,75.1,63.8,29.86,South,180,0.0,0.0,68,0.00,,---,0.00,VWS V14.01,2013-08-30 08:20:00,
2013-08-30 03:30:00,75.1,63.8,29.86,South,180,0.0,0.0,68,0.00,,---,0.00,VWS V14.01,2013-08-30 08:30:00,
2013-08-30 03:40:00,75.1,63.8,29.86,South,180,0.0,0.0,68,0.00,,---,0.00,VWS V14.01,2013-08-30 08:40:00,
2013-08-30 03:50:00,74.9,63.6,29.86,South,180,0.0,0.0,68,0.00,,---,0.00,VWS V14.01,2013-08-30 08:50:00,
2013-08-30 04:00:00,74.6,63.8,29.86,South,180,0.0,0.0,69,0.00,,---,0.00,VWS V14.01,2013-08-30 09:00:00,
2013-08-30 04:10:00,74.2,63.8,29.86,South,180,0.0,0.0,70,0.00,,---,0.00,VWS V14.01,2013-08-30 09:10:00,
2013-08-30 04:20:00,73.3,63.3,29.86,South,180,0.0,0.0,71,0.00,,---,0.00,VWS V14.01,2013-08-30 09:20:00,
2013-08-30 04:30:00,72.8,64.0,29.86,South,180,0.0,0.0,74,0.00,,---,0.00,VWS V14.01,2013-08-30 09:30:00,
2013-08-30 04:40:00,72.5,64.5,29.86,SE,135,0.0,5.0,76,0.00,,---,0.00,VWS V14.01,2013-08-30 09:40:00,
2013-08-30 04:50:00,70.6,64.5,29.86,ESE,112,3.0,5.0,81,0.00,,---,0.00,VWS V14.01,2013-08-30 09:50:00,
2013-08-30 05:00:00,70.4,65.0,29.86,ESE,112,0.0,3.0,83,0.00,,---,0.00,VWS V14.01,2013-08-30 10:00:00,
2013-08-30 05:10:00,70.6,65.2,29.86,ESE,112,0.0,0.0,83,0.00,,---,0.00,VWS V14.01,2013-08-30 10:10:00,
2013-08-30 05:20:00,70.9,65.1,29.86,ESE,112,0.0,0.0,82,0.00,,---,0.00,VWS V14.01,2013-08-30 10:20:00,
2013-08-30 05:30:00,70.9,64.8,29.86,ESE,112,0.0,0.0,81,0.00,,---,0.00,VWS V14.01,2013-08-30 10:30:00,
2013-08-30 05:40:00,71.1,65.0,29.86,ESE,112,0.0,0.0,81,0.00,,---,0.00,VWS V14.01,2013-08-30 10:40:00,
2013-08-30 05:50:00,71.6,64.8,29.86,ESE,112,0.0,0.0,79,0.00,,---,0.00,VWS V14.01,2013-08-30 10:50:00,
2013-08-30 06:00:00,71.6,64.8,29.86,ESE,112,0.0,0.0,79,0.00,,---,0.00,VWS V14.01,2013-08-30 11:00:00,
2013-08-30 06:10:00,71.3,64.5,29.86,ESE,112,0.0,0.0,79,0.00,,---,0.00,VWS V14.01,2013-08-30 11:10:00,
2013-08-30 06:20:00,71.1,64.6,29.86,ESE,112,0.0,0.0,80,0.00,,---,0.00,VWS V14.01,2013-08-30 11:20:00,
2013-08-30 06:30:00,70.9,64.4,29.86,ESE,112,0.0,0.0,80,0.00,,---,0.00,VWS V14.01,2013-08-30 11:30:00,
2013-08-30 06:40:00,70.9,64.8,29.86,ESE,112,0.0,0.0,81,0.00,,---,0.00,VWS V14.01,2013-08-30 11:40:00,
2013-08-30 06:50:00,70.8,64.7,29.86,ESE,112,0.0,0.0,81,0.00,,---,0.00,VWS V14.01,2013-08-30 11:50:00,
2013-08-30 07:00:00,70.8,65.0,29.86,ESE,112,0.0,0.0,82,0.00,,---,0.00,VWS V14.01,2013-08-30 12:00:00,
2013-08-30 07:10:00,70.8,64.7,29.86,ESE,112,0.0,0.0,81,0.00,,---,0.00,VWS V14.01,2013-08-30 12:10:00,
2013-08-30 07:20:00,71.1,65.0,29.87,SE,135,0.0,2.0,81,0.00,,---,0.00,VWS V14.01,2013-08-30 12:20:00,
2013-08-30 07:30:00,71.8,65.3,29.87,SE,135,0.0,3.0,80,0.00,,---,0.00,VWS V14.01,2013-08-30 12:30:00,
2013-08-30 07:40:00,72.5,65.6,29.87,SE,135,0.0,0.0,79,0.00,,---,0.00,VWS V14.01,2013-08-30 12:40:00,
2013-08-30 07:50:00,73.2,65.9,29.87,SE,135,0.0,4.0,78,0.00,,---,0.00,VWS V14.01,2013-08-30 12:50:00,
2013-08-30 08:00:00,73.7,66.1,29.87,SE,135,0.0,1.0,77,0.00,,---,0.00,VWS V14.01,2013-08-30 13:00:00,
2013-08-30 08:10:00,74.4,67.1,29.87,SE,135,0.0,2.0,78,0.00,,---,0.00,VWS V14.01,2013-08-30 13:10:00,
2013-08-30 08:20:00,75.3,67.2,29.87,South,180,0.0,4.0,76,0.00,,---,0.00,VWS V14.01,2013-08-30 13:20:00,
2013-08-30 08:30:00,76.3,67.4,29.87,South,180,0.0,4.0,74,0.00,,---,0.00,VWS V14.01,2013-08-30 13:30:00,
2013-08-30 08:40:00,77.4,68.1,29.87,South,180,0.0,1.0,73,0.00,,---,0.00,VWS V14.01,2013-08-30 13:40:00,
2013-08-30 08:50:00,78.6,68.0,29.87,SSW,202,0.0,2.0,70,0.00,,---,0.00,VWS V14.01,2013-08-30 13:50:00,
2013-08-30 09:00:00,79.6,67.7,29.86,SSW,202,1.0,7.0,67,0.00,,---,0.00,VWS V14.01,2013-08-30 14:00:00,
2013-08-30 09:10:00,80.5,68.1,29.86,South,180,2.0,8.0,66,0.00,,---,0.00,VWS V14.01,2013-08-30 14:10:00,
2013-08-30 09:20:00,81.1,67.8,29.87,SSW,202,3.0,7.0,64,0.00,,---,0.00,VWS V14.01,2013-08-30 14:20:00,
2013-08-30 09:30:00,81.6,67.8,29.86,SSW,202,3.0,6.0,63,0.00,,---,0.00,VWS V14.01,2013-08-30 14:30:00,
2013-08-30 09:40:00,82.4,67.6,29.86,SSW,202,1.0,6.0,61,0.00,,---,0.00,VWS V14.01,2013-08-30 14:40:00,
2013-08-30 09:50:00,83.4,67.6,29.86,SW,225,0.0,3.0,59,0.00,,---,0.00,VWS V14.01,2013-08-30 14:50:00,
2013-08-30 10:00:00,83.8,67.5,29.86,SW,225,2.0,11.0,58,0.00,,---,0.00,VWS V14.01,2013-08-30 15:00:00,
2013-08-30 10:10:00,84.5,68.6,29.86,SW,225,1.0,5.0,59,0.00,,---,0.00,VWS V14.01,2013-08-30 15:10:00,
2013-08-30 10:20:00,85.1,67.7,29.86,SSW,202,1.0,5.0,56,0.00,,---,0.00,VWS V14.01,2013-08-30 15:20:00,
2013-08-30 10:30:00,86.1,67.0,29.86,SSW,202,3.0,5.0,53,0.00,,---,0.00,VWS V14.01,2013-08-30 15:30:00,
2013-08-30 10:40:00,86.7,67.0,29.86,SW,225,2.0,10.0,52,0.00,,---,0.00,VWS V14.01,2013-08-30 15:40:00,
2013-08-30 10:50:00,87.2,68.0,29.86,SW,225,1.0,5.0,53,0.00,,---,0.00,VWS V14.01,2013-08-30 15:50:00,
2013-08-30 11:00:00,88.0,66.5,29.85,SSW,202,1.0,5.0,49,0.00,,---,0.00,VWS V14.01,2013-08-30 16:00:00,
2013-08-30 11:10:00,88.4,66.8,29.85,SW,225,0.0,3.0,49,0.00,,---,0.00,VWS V14.01,2013-08-30 16:10:00,
2013-08-30 11:20:00,89.0,66.8,29.85,SW,225,0.0,4.0,48,0.00,,---,0.00,VWS V14.01,2013-08-30 16:20:00,
2013-08-30 11:30:00,89.5,66.0,29.84,SW,225,1.0,5.0,46,0.00,,---,0.00,VWS V14.01,2013-08-30 16:30:00,
2013-08-30 11:40:00,90.3,66.7,29.84,SW,225,0.0,4.0,46,0.00,,---,0.00,VWS V14.01,2013-08-30 16:40:00,
2013-08-30 11:50:00,91.0,66.1,29.84,SW,225,0.0,3.0,44,0.00,,---,0.00,VWS V14.01,2013-08-30 16:50:00,
2013-08-30 12:00:00,91.6,65.3,29.84,SW,225,0.0,4.0,42,0.00,,---,0.00,VWS V14.01,2013-08-30 17:00:00,
2013-08-30 12:10:00,91.6,66.0,29.84,SW,225,0.0,6.0,43,0.00,,---,0.00,VWS V14.01,2013-08-30 17:10:00,
2013-08-30 12:20:00,92.3,65.9,29.83,SW,225,0.0,2.0,42,0.00,,---,0.00,VWS V14.01,2013-08-30 17:20:00,
2013-08-30 12:30:00,92.5,65.4,29.83,SW,225,0.0,4.0,41,0.00,,---,0.00,VWS V14.01,2013-08-30 17:30:00,
2013-08-30 12:40:00,93.6,64.9,29.83,WSW,248,0.0,6.0,39,0.00,,---,0.00,VWS V14.01,2013-08-30 17:40:00,
2013-08-30 12:50:00,94.0,65.3,29.82,WSW,248,0.0,1.0,39,0.00,,---,0.00,VWS V14.01,2013-08-30 17:50:00,
2013-08-30 13:00:00,94.3,62.5,29.82,SSW,202,1.0,6.0,35,0.00,,---,0.00,VWS V14.01,2013-08-30 18:00:00,
2013-08-30 13:10:00,94.9,65.3,29.82,SSW,202,0.0,4.0,38,0.00,,---,0.00,VWS V14.01,2013-08-30 18:10:00,
2013-08-30 13:20:00,95.4,65.8,29.82,SSW,202,0.0,4.0,38,0.00,,---,0.00,VWS V14.01,2013-08-30 18:20:00,
2013-08-30 13:30:00,95.9,65.5,29.81,SSW,202,0.0,4.0,37,0.00,,---,0.00,VWS V14.01,2013-08-30 18:30:00,
2013-08-30 13:40:00,96.6,66.1,29.81,SSW,202,0.0,1.0,37,0.00,,---,0.00,VWS V14.01,2013-08-30 18:40:00,
2013-08-30 13:50:00,97.1,65.7,29.81,SSW,202,0.0,5.0,36,0.00,,---,0.00,VWS V14.01,2013-08-30 18:50:00,
2013-08-30 14:00:00,97.3,65.1,29.80,South,180,1.0,7.0,35,0.00,,---,0.00,VWS V14.01,2013-08-30 19:00:00,
2013-08-30 14:10:00,97.3,61.6,29.80,SSE,158,2.0,9.0,31,0.00,,---,0.00,VWS V14.01,2013-08-30 19:10:00,
2013-08-30 14:20:00,98.0,63.1,29.80,South,180,1.0,6.0,32,0.00,,---,0.00,VWS V14.01,2013-08-30 19:20:00,
2013-08-30 14:30:00,98.5,60.8,29.80,South,180,2.0,6.0,29,0.00,,---,0.00,VWS V14.01,2013-08-30 19:30:00,
2013-08-30 14:40:00,98.7,61.0,29.80,SSW,202,1.0,9.0,29,0.00,,---,0.00,VWS V14.01,2013-08-30 19:40:00,
2013-08-30 14:50:00,98.7,61.9,29.79,SSE,158,2.0,9.0,30,0.00,,---,0.00,VWS V14.01,2013-08-30 19:50:00,
2013-08-30 15:00:00,99.0,60.2,29.79,South,180,2.0,5.0,28,0.00,,---,0.00,VWS V14.01,2013-08-30 20:00:00,
2013-08-30 15:10:00,99.7,60.8,29.79,SSE,158,1.0,6.0,28,0.00,,---,0.00,VWS V14.01,2013-08-30 20:10:00,
2013-08-30 15:20:00,99.7,60.8,29.79,SSE,158,2.0,4.0,28,0.00,,---,0.00,VWS V14.01,2013-08-30 20:20:00,
2013-08-30 15:30:00,99.9,61.0,29.78,South,180,1.0,5.0,28,0.00,,---,0.00,VWS V14.01,2013-08-30 20:30:00,
2013-08-30 15:40:00,99.9,60.0,29.78,South,180,1.0,6.0,27,0.00,,---,0.00,VWS V14.01,2013-08-30 20:40:00,
2013-08-30 15:50:00,100.7,58.5,29.78,SW,225,1.0,5.0,25,0.00,,---,0.00,VWS V14.01,2013-08-30 20:50:00,
2013-08-30 16:00:00,100.7,60.6,29.77,SW,225,1.0,6.0,27,0.00,,---,0.00,VWS V14.01,2013-08-30 21:00:00,
2013-08-30 16:10:00,101.0,58.7,29.77,SW,225,1.0,5.0,25,0.00,,---,0.00,VWS V14.01,2013-08-30 21:10:00,
2013-08-30 16:20:00,100.7,58.5,29.78,SW,225,1.0,3.0,25,0.00,,---,0.00,VWS V14.01,2013-08-30 21:20:00,
2013-08-30 16:30:00,101.5,59.2,29.77,SW,225,0.0,3.0,25,0.00,,---,0.00,VWS V14.01,2013-08-30 21:30:00,
2013-08-30 16:40:00,101.0,58.7,29.77,SW,225,1.0,3.0,25,0.00,,---,0.00,VWS V14.01,2013-08-30 21:40:00,
2013-08-30 16:50:00,101.2,57.8,29.77,SW,225,1.0,3.0,24,0.00,,---,0.00,VWS V14.01,2013-08-30 21:50:00,
2013-08-30 17:00:00,101.5,58.0,29.76,SW,225,1.0,3.0,24,0.00,,---,0.00,VWS V14.01,2013-08-30 22:00:00,
2013-08-30 17:10:00,101.2,57.8,29.76,SW,225,0.0,1.0,24,0.00,,---,0.00,VWS V14.01,2013-08-30 22:10:00,
2013-08-30 17:20:00,100.7,58.5,29.76,SW,225,0.0,3.0,25,0.00,,---,0.00,VWS V14.01,2013-08-30 22:20:00,
2013-08-30 17:30:00,101.0,58.7,29.76,SW,225,0.0,0.0,25,0.00,,---,0.00,VWS V14.01,2013-08-30 22:30:00,
2013-08-30 17:40:00,100.7,59.6,29.76,SW,225,0.0,1.0,26,0.00,,---,0.00,VWS V14.01,2013-08-30 22:40:00,
2013-08-30 17:50:00,100.4,59.3,29.75,SW,225,0.0,1.0,26,0.00,,---,0.00,VWS V14.01,2013-08-30 22:50:00,
2013-08-30 18:00:00,100.4,59.3,29.75,SW,225,0.0,0.0,26,0.00,,---,0.00,VWS V14.01,2013-08-30 23:00:00,
2013-08-30 18:10:00,100.2,61.2,29.75,SW,225,0.0,0.0,28,0.00,,---,0.00,VWS V14.01,2013-08-30 23:10:00,
2013-08-30 18:20:00,99.9,61.0,29.75,SW,225,0.0,0.0,28,0.00,,---,0.00,VWS V14.01,2013-08-30 23:20:00,
2013-08-30 18:30:00,99.4,61.5,29.75,SW,225,0.0,0.0,29,0.00,,---,0.00,VWS V14.01,2013-08-30 23:30:00,
2013-08-30 18:40:00,99.0,61.2,29.75,SW,225,0.0,0.0,29,0.00,,---,0.00,VWS V14.01,2013-08-30 23:40:00,
2013-08-30 18:50:00,98.2,64.2,29.75,SW,225,0.0,0.0,33,0.00,,---,0.00,VWS V14.01,2013-08-30 23:50:00,
2013-08-30 19:00:00,97.3,63.4,29.75,SW,225,0.0,0.0,33,0.00,,---,0.00,VWS V14.01,2013-08-31 00:00:00,
2013-08-30 19:10:00,96.6,66.1,29.75,SW,225,0.0,0.0,37,0.00,,---,0.00,VWS V14.01,2013-08-31 00:10:00,
2013-08-30 19:20:00,95.4,64.2,29.74,SW,225,0.0,0.0,36,0.00,,---,0.00,VWS V14.01,2013-08-31 00:20:00,
2013-08-30 19:30:00,95.1,64.8,29.74,SW,225,0.0,0.0,37,0.00,,---,0.00,VWS V14.01,2013-08-31 00:30:00,
2013-08-30 19:40:00,94.3,65.6,29.74,SSW,202,0.0,3.0,39,0.00,,---,0.00,VWS V14.01,2013-08-31 00:40:00,
2013-08-30 19:50:00,93.4,66.2,29.73,SSW,202,0.0,0.0,41,0.00,,---,0.00,VWS V14.01,2013-08-31 00:50:00,
2013-08-30 20:00:00,92.5,66.1,29.74,SSW,202,0.0,0.0,42,0.00,,---,0.00,VWS V14.01,2013-08-31 01:00:00,
2013-08-30 20:10:00,91.8,66.1,29.74,SSE,158,0.0,4.0,43,0.00,,---,0.00,VWS V14.01,2013-08-31 01:10:00,
2013-08-30 20:20:00,91.0,65.4,29.73,SSE,158,0.0,4.0,43,0.00,,---,0.00,VWS V14.01,2013-08-31 01:20:00,
2013-08-30 20:30:00,90.3,65.4,29.73,SSE,158,0.0,0.0,44,0.00,,---,0.00,VWS V14.01,2013-08-31 01:30:00,
2013-08-30 20:40:00,89.5,66.0,29.73,SSE,158,0.0,0.0,46,0.00,,---,0.00,VWS V14.01,2013-08-31 01:40:00,
2013-08-30 20:50:00,88.6,66.4,29.74,SSE,158,0.0,0.0,48,0.00,,---,0.00,VWS V14.01,2013-08-31 01:50:00,
2013-08-30 21:00:00,87.4,67.1,29.74,SSE,158,0.0,0.0,51,0.00,,---,0.00,VWS V14.01,2013-08-31 02:00:00,
2013-08-30 21:10:00,86.5,66.8,29.74,SSE,158,0.0,0.0,52,0.00,,---,0.00,VWS V14.01,2013-08-31 02:10:00,
2013-08-30 21:20:00,85.9,66.8,29.74,SSE,158,0.0,0.0,53,0.00,,---,0.00,VWS V14.01,2013-08-31 02:20:00,
2013-08-30 21:30:00,85.3,66.8,29.75,SSE,158,0.0,0.0,54,0.00,,---,0.00,VWS V14.01,2013-08-31 02:30:00,
2013-08-30 21:40:00,84.9,66.9,29.75,SSE,158,0.0,0.0,55,0.00,,---,0.00,VWS V14.01,2013-08-31 02:40:00,
2013-08-30 21:50:00,84.3,66.9,29.75,SSE,158,0.0,0.0,56,0.00,,---,0.00,VWS V14.01,2013-08-31 02:50:00,
2013-08-30 22:00:00,84.0,67.1,29.75,SSE,158,0.0,0.0,57,0.00,,---,0.00,VWS V14.01,2013-08-31 03:00:00,
2013-08-30 22:10:00,83.6,66.8,29.75,SSE,158,0.0,3.0,57,0.00,,---,0.00,VWS V14.01,2013-08-31 03:10:00,
2013-08-30 22:20:00,83.2,66.9,29.75,SSE,158,0.0,0.0,58,0.00,,---,0.00,VWS V14.01,2013-08-31 03:20:00,
2013-08-30 22:30:00,82.6,66.8,29.76,SSE,158,0.0,0.0,59,0.00,,---,0.00,VWS V14.01,2013-08-31 03:30:00,
2013-08-30 22:40:00,82.2,66.5,29.76,SSE,158,0.0,2.0,59,0.00,,---,0.00,VWS V14.01,2013-08-31 03:40:00,
2013-08-30 22:50:00,81.8,66.6,29.76,SSE,158,0.0,0.0,60,0.00,,---,0.00,VWS V14.01,2013-08-31 03:50:00,
2013-08-30 23:00:00,82.0,66.3,29.76,SSE,158,0.0,5.0,59,0.00,,---,0.00,VWS V14.01,2013-08-31 04:00:00,
2013-08-30 23:10:00,81.8,66.6,29.76,SSE,158,0.0,5.0,60,0.00,,---,0.00,VWS V14.01,2013-08-31 04:10:00,
2013-08-30 23:20:00,81.2,66.9,29.76,SSE,158,0.0,1.0,62,0.00,,---,0.00,VWS V14.01,2013-08-31 04:20:00,
2013-08-30 23:30:00,80.9,67.1,29.76,SSE,158,0.0,1.0,63,0.00,,---,0.00,VWS V14.01,2013-08-31 04:30:00,
2013-08-30 23:40:00,80.1,67.3,29.76,SSE,158,0.0,0.0,65,0.00,,---,0.00,VWS V14.01,2013-08-31 04:40:00,
2013-08-30 23:50:00,79.8,67.0,29.76,SSE,158,0.0,0.0,65,0.00,,---,0.00,VWS V14.01,2013-08-31 04:50:00,